Orbital Elements at Epoch 2459000.5 (2020-May-31.0) TDB
Reference: JPL 20 (heliocentric ecliptic J2000)
Element | Value | Uncertainty (1-sigma) | Units |
e | .1196965464749657 | 3.3443e-08 | |
a | 2.408474434636207 | 1.176e-08 | au |
q | 2.120188362537008 | 7.9804e-08 | au |
i | 6.313064947353833 | 6.1522e-06 | deg |
node | 359.6935447498565 | 2.7323e-05 | deg |
peri | 66.36338139898969 | 3.8745e-05 | deg |
M | 129.8645185741703 | 2.6662e-05 | deg |
tp | 2458508.007640696983 (2019-Jan-24.50764070) | 0.00010014 | TDB |
period | 1365.24780822119 3.74 | 9.9997e-06 2.738e-08 | d yr |
n | .2636883925629967 | 1.9314e-09 | deg/d |
Q | 2.696760506735407 | 1.3168e-08 | au |
|
| | Orbit Determination Parameters
Additional Information
|